Seretse Khama, Botswana

3:38 PM CAT on January 20, 2018 (GMT +0200)
Seretse Khama

Weather History for FBSK - February, 2012

Change the Weather History Date:

Friday, February 10, 2012

  Actual Average Record
Temperature  
Mean Temperature 73 °F -  
Max Temperature 78 °F 85 °F 97 °F (2015)
Min Temperature 68 °F 64 °F 42 °F (2004)
Cooling Degree Days 8    
Growing Degree Days 23 (Base 50)    
Moisture  
Dew Point 66 °F    
Average Humidity 75    
Maximum Humidity 94    
Minimum Humidity 53    
Precipitation  
Precipitation 0.00 in - - ()
Sea Level Pressure  
Sea Level Pressure 29.83 in    
Wind  
Wind Speed 6 mph ()    
Max Wind Speed 15 mph    
Max Gust Speed -    
Visibility 6.2 miles    
Events Rain , Thunderstorm    
Averages and records for this station are not official NWS values.
T = Trace of Precipitation, MM = Missing Value Source: Averaged Metar Reports

Daily Weather History Graph

Daily Weather History Graph

Search for Another Location

Airport or City:

Trip Planner

Search our weather history database for the weather conditions in past years. The results will help you decide how hot, cold, wet, or windy it might be!

Date:

Astronomy

Feb. 10, 2012 Rise Set
Actual Time 5:59 AM CAT 7:01 PM CAT
Civil Twilight 5:35 AM CAT 7:25 PM CAT
Nautical Twilight 5:07 AM CAT 7:53 PM CAT
Astronomical Twilight 4:38 AM CAT 8:22 PM CAT
Moon 8:38 PM CAT (2/10) 8:21 AM CAT (2/10)
Length of Visible Light 13h 49m
Length of Day
13h 01m
Waning Gibbous, 92% of the Moon is Illuminated
Feb 10
Waning Gibbous
Feb 14
Last Quarter
Feb 22
New
Mar 1
First Quarter
Mar 8
Full

Hourly Weather History & Observations

Time (CAT) Temp. Dew Point Humidity Pressure Visibility Wind Dir Wind Speed Gust Speed Precip Events Conditions
12:00 AM 77.0 °F 62.6 °F 61% 29.86 in - West 3.5 mph - N/A   Clear
1:00 AM 75.2 °F 62.6 °F 65% 29.86 in - WSW 3.5 mph - N/A   Clear
2:00 AM 77 °F 63 °F 53%  in 6 mi WSW 13.8 mph - -   Scattered Clouds
2:00 AM 77.0 °F 62.6 °F 61% 29.86 in 6.2 mi WSW 13.8 mph - N/A   Mostly Cloudy
3:00 AM 75.2 °F 62.6 °F 65% 29.83 in 6.2 mi South 15.0 mph - N/A   Mostly Cloudy
4:00 AM 73.4 °F 64.4 °F 73% 29.80 in 6.2 mi SW 5.8 mph - N/A   Mostly Cloudy
5:00 AM 73.4 °F 64.4 °F 73% 29.80 in 6.2 mi Variable 1.2 mph - N/A   Mostly Cloudy
6:00 AM 73.4 °F 64.4 °F 73% 29.83 in 6.2 mi WNW 10.4 mph - N/A   Partly Cloudy
7:00 AM 69.8 °F 68.0 °F 94% 29.83 in 6.2 mi South 4.6 mph - N/A Rain Rain
8:00 AM 71 °F 68 °F 86%  in 6 mi SE 5.8 mph - - Thunderstorm Light Thunderstorm
8:00 AM 71.6 °F 68.0 °F 88% 29.86 in 6.2 mi SE 5.8 mph - N/A   Scattered Clouds
9:00 AM 68.0 °F 66.2 °F 94% 29.89 in 6.2 mi WSW 13.8 mph - N/A Rain Rain
10:00 AM 69.8 °F 68.0 °F 94% 29.92 in 6.2 mi WSW 8.1 mph - N/A   Scattered Clouds
11:00 AM 69.8 °F 66.2 °F 88% 29.89 in 6.2 mi SW 6.9 mph - N/A   Scattered Clouds
12:00 PM 73.4 °F 66.2 °F 78% 29.86 in 6.2 mi SSE 6.9 mph - N/A   Mostly Cloudy
1:00 PM 78.8 °F 66.2 °F 65% 29.83 in 6.2 mi SSW 6.9 mph - N/A   Mostly Cloudy
2:00 PM 79 °F 65 °F 53%  in 6 mi WSW 4.6 mph - -   Partly Cloudy
2:00 PM 78.8 °F 64.4 °F 61% 29.83 in 6.2 mi WSW 4.6 mph - N/A   Mostly Cloudy
4:00 PM 77.0 °F 66.2 °F 69% 29.77 in 6.2 mi SE 8.1 mph - N/A   Light Drizzle
5:00 PM 78.8 °F 68.0 °F 69% 29.77 in 6.2 mi SSE 3.5 mph - N/A   Mostly Cloudy
6:00 PM 77.0 °F 66.2 °F 69% 29.74 in 6.2 mi SSE 3.5 mph - N/A   Mostly Cloudy
7:00 PM 75.2 °F 66.2 °F 73% 29.77 in 6.2 mi South 6.9 mph - N/A   Mostly Cloudy
8:00 PM 74 °F 68 °F 75%  in 6 mi South 6.9 mph - -   Scattered Clouds
8:00 PM 73.4 °F 68.0 °F 83% 29.77 in 6.2 mi South 6.9 mph - N/A   Mostly Cloudy
9:00 PM 71.6 °F 68.0 °F 88% 29.83 in 6.2 mi WSW 10.4 mph - N/A Thunderstorm Thunderstorm
10:00 PM 71.6 °F 68.0 °F 88% 29.80 in 6.2 mi Variable 2.3 mph - N/A Thunderstorm Thunderstorm
11:00 PM 69.8 °F 68.0 °F 94% 29.83 in 6.2 mi ENE 3.5 mph - N/A Thunderstorm Thunderstorm